Regional Weather Roundup
Issued by NWS State College, PA

Home | Current Version | Previous Version | Graphics & Text | Print | Product List | Glossary On
Versions: 1 2 3 4 5 6 7 8 9 10 11 12 13 14 15 16 17 18 19 20 21 22 23 24 25 26 27 28 29 30 31 32 33 34 35 36 37 38 39 40 41 42 43 44 45 46 47 48 49 50
159
ASUS41 KCTP 131110
RWRCTP

REGIONAL WEATHER ROUNDUP
NATIONAL WEATHER SERVICE STATE COLLEGE PA
600 AM EST SAT FEB 13 2016

Note: "fair" indicates few or no clouds below 12,000 feet with no
significant weather and/or obstructions to visibility.

* = STATION THAT DOES NOT REPORT PRECIPITATION /E.G. RAIN...SNOW...ETC/
    THUNDER OR FOG.

PAZ002>004-007>009-013>016-020>023-029>032-131200-
WESTERN PENNSYLVANIA

CITY           SKY/WX    TMP DP  RH WIND       PRES   REMARKS
ERIE           PTCLDY     7  -4  60 NW17G32   30.23R HAZE    WCI -12
MEADVILLE      HVY SNOW   7   2  80 NW8G20    30.12R VSB 1/4 WCI  -6
FRANKLIN*      CLOUDY     3  -6  66 W12G17    30.11R WCI -13
NEW CASTLE     FAIR       5  -4  66 W13       30.22R WCI -12
BEAVER COUNTY  NOT AVBL
BUTLER*        CLEAR      5  -6  61 W9        30.21R WCI  -9
PITTSBURGH INT LGT SNOW   7  -1  70 NW21G30   30.20R BLWGSNOWWCI -13
PITTSBURGH     LGT SNOW   8   1  73 NW13G26   30.18R VSB 1   WCI  -8
INDIANA*       MOCLDY     7  -2  66 NW15G23   30.14R WCI -11
LATROBE        MOCLDY     9   0  66 NW14G21   30.18R WCI  -8
WASHINGTON CO* CLEAR      9  -6  52 W7        30.21R WCI  -3
$$

PAZ004>006-010>012-017>019-024>028-033>037-041-042-045-046-049>053-131200-
CENTRAL PENNSYLVANIA

CITY           SKY/WX    TMP DP  RH WIND       PRES   REMARKS
BRADFORD       LGT SNOW   4  -2  76 NW16G28   29.95R VSB 1   WCI -15
DUBOIS         MOCLDY     4  -4  69 W17G25    30.01R WCI -16
CLEARFIELD     PTCLDY     8  -3  61 W14G24    30.02R WCI  -8
JOHNSTOWN      HAZE       5  -2  72 NW20G28   29.99R VSB 1/2 WCI -15
ALTOONA        MOCLDY    10  -2  58 NW21G37   30.04R WCI  -9
STATE COLLEGE  PTCLDY    10   1  67 W14       30.03R WCI  -5
WILLIAMSPORT   CLEAR     14  -4  44 NW7       30.04R WCI   4
SELINSGROVE    CLEAR     16  -1  47 NW10      30.05R WCI   4
FT INDIANTOWN  PTCLDY    18   4  54 W15G23    30.02R WCI   3
CAPITAL CITY   PTCLDY    19  -2  39 NW21G30   30.07R WCI   3
HARRISBURG     PTCLDY    18   3  52 NW18G29   30.06R WCI   2
YORK           CLEAR     17   1  49 NW16      30.06R WCI   2
$$

PAZ038>040-043-044-047-048-054-055-060>062-067>071-131200-
EASTERN PENNSYLVANIA

CITY           SKY/WX    TMP DP  RH WIND       PRES   REMARKS
SCRANTON       PTCLDY    14   5  67 NW14G24   29.92R WCI  -1
MOUNT POCONO   LGT SNOW  11   4  73 NW14G28   29.80R WCI  -5
ALLENTOWN      CLOUDY    20  10  65 NW14      29.95R WCI   7
QUAKERTOWN*    CLOUDY    18  10  73 NW8       29.96R WCI   7
READING        MIX PCPN  20   9  62 NW23G31   30.00R WCI   3
LANCASTER      PTCLDY    17   6  62 NW17G28   30.01R WCI   1
COATESVILLE    MOSUNNY   16   9  73 NW16      29.99R WCI   0
POTTSTOWN      MOCLDY    18   8  65 W13G18    29.99R WCI   5
BLUE BELL        N/A     19  10  68 W12G18    29.97R WCI   7
DOYLESTOWN     PTCLDY    17   9  70 W12       29.94R WCI   4
WILLOW GROVE   NOT AVBL
NORTH PHILA    CLEAR     22  11  62 W14       29.99R WCI   9
PHILADELPHIA   PTCLDY    22   8  55 W18G26    30.01R WCI   7
$$




USA.gov is the U.S. government's official web portal to all federal, state and local government web resources and services.